This is the latest recevied weather packets stored in our database for station/object YF9UAG-17. If no packets are shown the sender has not sent any weather packets the latest 10 day(s).
| Time | Temp. | Humidity | Pressure | Rain* | Wind** | Luminosity | Snow |
|---|---|---|---|---|---|---|---|
| 1787974221 | 27.78° C | 48% | 1033.3 hPa | - | - | - | - |
| 1787973619 | 27.22° C | 49% | 1033.4 hPa | - | - | - | - |
| 1787973016 | 27.22° C | 50% | 1033.6 hPa | - | - | - | - |
| 1787972414 | 27.22° C | 50% | 1033.7 hPa | - | - | - | - |
| 1787971812 | 27.78° C | 49% | 1033.9 hPa | - | - | - | - |
| 1787971209 | 27.78° C | 50% | 1034.1 hPa | - | - | - | - |
| 1787970607 | 26.67° C | 52% | 1034.2 hPa | - | - | - | - |
| 1787970005 | 26.67° C | 54% | 1034.3 hPa | - | - | - | - |
| 1787969402 | 26.67° C | 52% | 1034.4 hPa | - | - | - | - |
| 1787968800 | 26.67° C | 52% | 1034.4 hPa | - | - | - | - |
| 1787968198 | 26.67° C | 52% | 1034.4 hPa | - | - | - | - |
| 1787967595 | 26.67° C | 52% | 1034.4 hPa | - | - | - | - |
| 1787966993 | 26.11° C | 52% | 1034.3 hPa | - | - | - | - |
| 1787966391 | 26.67° C | 52% | 1034.4 hPa | - | - | - | - |
| 1787965788 | 26.11° C | 53% | 1034.3 hPa | - | - | - | - |
| 1787965186 | 26.67° C | 53% | 1034.2 hPa | - | - | - | - |
| 1787964584 | 26.67° C | 55% | 1034.2 hPa | - | - | - | - |
| 1787963982 | 26.11° C | 57% | 1034.1 hPa | - | - | - | - |
| 1787963379 | 26.11° C | 59% | 1034.1 hPa | - | - | - | - |
| 1787962777 | 25.56° C | 55% | 1034 hPa | - | - | - | - |
| 1787962175 | 25.56° C | 54% | 1034 hPa | - | - | - | - |
| 1787961573 | 25.56° C | 53% | 1033.9 hPa | - | - | - | - |
| 1787960970 | 25.56° C | 53% | 1033.9 hPa | - | - | - | - |
| 1787960368 | 25.56° C | 53% | 1033.8 hPa | - | - | - | - |
| 1787959766 | 25.56° C | 54% | 1033.9 hPa | - | - | - | - |
* Rain since midnight (hover to see other rain measurements)
** Current wind speed in m/s (hover to see current wind gust speed)